Regional Weather Roundup
Issued by NWS

Home | Current Version | Previous Version | Text Only | Print | Product List | Glossary On
Versions: 1 2 3 4 5 6 7 8 9 10 11 12 13 14 15 16 17 18 19 20 21 22 23 24 25 26 27 28 29 30 31 32 33 34 35 36 37 38 39 40 41 42 43 44 45 46 47 48 49
000
ASUS44 KBMX 280110
RWRAL

ALABAMA REGIONAL WEATHER ROUNDUP
NATIONAL WEATHER SERVICE BIRMINGHAM AL
800 PM CDT MON JUL 27 2015

NOTE: "FAIR" INDICATES FEW OR NO CLOUDS BELOW 12,000 FEET
WITH NO SIGNIFICANT WEATHER AND/OR OBSTRUCTIONS TO VISIBILITY.

THE REMARK "TC" DENOTES TEMPERATURE IN DEGREES CELSIUS.

ALZ001>011-014-016>018-020-280200-
NORTH ALABAMA

CITY           SKY/WX    TMP DP  RH WIND       PRES   REMARKS
MUSCLE SHOALS  PTCLDY    87  74  64 W3        29.96R HX  95
HUNTSVILLE     MOCLDY    89  73  59 CALM      29.95R HX  97
DECATUR        PTCLDY    83  74  74 NE3       29.96R
HALEYVILLE     FAIR      84  77  80 CALM      30.00R HX  93
GADSDEN        PTCLDY    82  72  69 W6        29.94S
$$

ALZ012-013-022-023-030>036-040>044-280200-
WEST CENTRAL ALABAMA

CITY           SKY/WX    TMP DP  RH WIND       PRES   REMARKS
TUSCALOOSA     MOCLDY    86  76  71 CALM      29.93F HX  96
$$

ALZ015-024>027-033>036-040>044-280200-
CENTRAL ALABAMA

CITY           SKY/WX    TMP DP  RH WIND       PRES   REMARKS
BIRMINGHAM     PTCLDY    78  76  93 CALM      29.98S
MONTGOMERY     CLEAR     88  75  65 NW8       29.93S HX  97
SHELBY CO ARPT PTCLDY    78  74  87 CALM      29.95F
MAXWELL AFB    PTCLDY    87  75  68 N7        29.92S HX  97
GREENVILLE     FAIR      85  75  72 CALM      29.93F HX  93
$$

ALZ019-021-028-029-037-038-045>048-280200-
EAST CENTRAL ALABAMA

CITY           SKY/WX    TMP DP  RH WIND       PRES   REMARKS
ANNISTON       MOCLDY    81  75  82 CALM      29.96S
ALEXANDER CITY PTCLDY    81  68  65 N5        29.96S
AUBURN         CLEAR     86  70  58 W5        29.97S HX  90
$$

ALZ051>064-280200-
SOUTHWEST ALABAMA

CITY           SKY/WX    TMP DP  RH WIND       PRES   REMARKS
MOBILE         MOCLDY    84  75  74 SW5       29.94S HX  92
BROOKLEY FIELD CLEAR     86  75  69 VRB5      29.94S HX  95
EVERGREEN      MOCLDY    83  74  74 CALM      29.93F
$$

ALZ049-050-065>069-280200-
SOUTHEAST ALABAMA

CITY           SKY/WX    TMP DP  RH WIND       PRES   REMARKS
DOTHAN         PTCLDY    87  72  60 E3        29.96S HX  93
OZARK          PTCLDY    88  72  60 E1        29.93R HX  94
TROY           PTCLDY    84  75  74 CALM      29.94F HX  92
EUFAULA        FAIR      82  77  84 CALM      29.92R HX  90
$$



USA.gov is the U.S. government's official web portal to all federal, state and local government web resources and services.